When you browse on this site, cookies collect data to enhance your experience and personalize the content and advertising you see.
Visit our Privacy Policy to learn more. By continuing to use the site, you agree to this use of cookies and data.
  • In Hungary
  • List of Countries
  • For 7 days
  • Water Temperature
  • Weather Map
  • News
  • Weather Widgets
  • user-avatar
    Login

    Hourly Weather Lago Usa

    Today, 14 November, Thursday

    Time Temperature Precipitation Wind Pressure Humidity
    00:00 +26°C° 0.2 mm 2 mps 747 mmHg 77%
    01:00 +25°C° 0.2 mm 2 mps 747 mmHg 78%
    02:00 +25°C° 0.2 mm 2 mps 746 mmHg 80%
    03:00 +25°C° 0.1 mm 2 mps 746 mmHg 81%
    04:00 +25°C° 0.1 mm 3 mps 746 mmHg 81%
    05:00 +25°C° 0.1 mm 3 mps 746 mmHg 82%
    06:00 +26°C° 0 mm 3 mps 747 mmHg 78%
    07:00 +27°C° 0 mm 3 mps 747 mmHg 73%
    08:00 +28°C° 0 mm 3 mps 748 mmHg 69%
    09:00 +29°C° 0 mm 3 mps 747 mmHg 61%
    10:00 +31°C° 0 mm 3 mps 747 mmHg 53%
    11:00 +34°C° 0 mm 3 mps 747 mmHg 45%
    12:00 +34°C° 0 mm 3 mps 746 mmHg 43%
    13:00 +35°C° 0 mm 3 mps 745 mmHg 42%
    14:00 +35°C° 0 mm 3 mps 744 mmHg 40%
    15:00 +35°C° 0 mm 3 mps 743 mmHg 40%
    16:00 +35°C° 0 mm 3 mps 742 mmHg 40%
    17:00 +35°C° 0 mm 3 mps 742 mmHg 41%
    18:00 +33°C° 0 mm 4 mps 742 mmHg 46%
    19:00 +32°C° 0 mm 4 mps 743 mmHg 52%
    20:00 +29°C° 0 mm 5 mps 744 mmHg 58%
    21:00 +28°C° 0.1 mm 5 mps 744 mmHg 64%
    22:00 +27°C° 0.1 mm 5 mps 744 mmHg 71%
    23:00 +26°C° 0.1 mm 4 mps 745 mmHg 77%

    Tomorrow, 15 November, Friday

    Time Temperature Precipitation Wind Pressure Humidity
    00:00 +25°C° 0.4 mm 4 mps 744 mmHg 81%
    01:00 +25°C° 0.4 mm 4 mps 744 mmHg 84%
    02:00 +24°C° 0.4 mm 3 mps 744 mmHg 88%
    03:00 +24°C° 0.6 mm 3 mps 744 mmHg 88%
    04:00 +24°C° 0.6 mm 3 mps 744 mmHg 89%
    05:00 +24°C° 0.6 mm 3 mps 744 mmHg 89%
    06:00 +25°C° 0.3 mm 2 mps 744 mmHg 86%
    07:00 +26°C° 0.3 mm 2 mps 745 mmHg 82%
    08:00 +27°C° 0.3 mm 2 mps 745 mmHg 79%
    09:00 +28°C° 0 mm 1 mps 745 mmHg 72%
    10:00 +30°C° 0 mm 1 mps 744 mmHg 66%
    11:00 +32°C° 0 mm 1 mps 743 mmHg 59%
    12:00 +33°C° 0 mm 1 mps 743 mmHg 54%
    13:00 +35°C° 0 mm 1 mps 742 mmHg 49%
    14:00 +37°C° 0 mm 1 mps 742 mmHg 43%
    15:00 +36°C° 0.2 mm 2 mps 742 mmHg 47%
    16:00 +35°C° 0.2 mm 3 mps 741 mmHg 50%
    17:00 +33°C° 0.2 mm 5 mps 741 mmHg 54%
    18:00 +32°C° 0.3 mm 4 mps 742 mmHg 61%
    19:00 +29°C° 0.3 mm 4 mps 743 mmHg 68%
    20:00 +27°C° 0.3 mm 4 mps 743 mmHg 75%
    21:00 +27°C° 0 mm 4 mps 744 mmHg 76%
    22:00 +27°C° 0 mm 3 mps 744 mmHg 76%
    23:00 +27°C° 0 mm 3 mps 744 mmHg 77%

    Day after tomorrow, 16 November, Saturday

    Time Temperature Precipitation Wind Pressure Humidity
    00:00 +26°C° 0.1 mm 3 mps 744 mmHg 79%
    01:00 +26°C° 0.1 mm 3 mps 744 mmHg 81%
    02:00 +25°C° 0.1 mm 3 mps 743 mmHg 82%
    03:00 +25°C° 0 mm 2 mps 744 mmHg 83%
    04:00 +24°C° 0 mm 2 mps 744 mmHg 83%
    05:00 +24°C° 0 mm 2 mps 744 mmHg 84%
    06:00 +25°C° 0 mm 2 mps 744 mmHg 74%
    07:00 +27°C° 0 mm 2 mps 745 mmHg 65%
    08:00 +28°C° 0 mm 3 mps 745 mmHg 55%
    09:00 +31°C° 0 mm 2 mps 745 mmHg 48%
    10:00 +34°C° 0 mm 2 mps 744 mmHg 40%
    11:00 +36°C° 0 mm 2 mps 744 mmHg 33%
    12:00 +37°C° 0 mm 2 mps 743 mmHg 30%
    13:00 +38°C° 0 mm 2 mps 742 mmHg 28%
    14:00 +39°C° 0 mm 3 mps 742 mmHg 25%
    15:00 +39°C° 0 mm 3 mps 741 mmHg 25%
    16:00 +38°C° 0 mm 4 mps 741 mmHg 26%
    17:00 +38°C° 0 mm 4 mps 741 mmHg 26%
    18:00 +36°C° 0 mm 4 mps 741 mmHg 29%
    19:00 +34°C° 0 mm 4 mps 742 mmHg 32%
    20:00 +32°C° 0 mm 5 mps 743 mmHg 35%
    21:00 +30°C° 0 mm 4 mps 743 mmHg 42%
    22:00 +28°C° 0 mm 4 mps 743 mmHg 49%
    23:00 +27°C° 0 mm 4 mps 744 mmHg 56%

    17 November, Sunday

    Time Temperature Precipitation Wind Pressure Humidity
    00:00 +26°C° 0 mm 3 mps 744 mmHg 61%
    01:00 +26°C° 0 mm 2 mps 743 mmHg 67%
    02:00 +25°C° 0 mm 1 mps 743 mmHg 72%
    03:00 +24°C° 0 mm 1 mps 744 mmHg 74%
    04:00 +24°C° 0 mm 1 mps 744 mmHg 76%
    05:00 +24°C° 0 mm 1 mps 744 mmHg 78%
    06:00 +26°C° 0 mm 1 mps 744 mmHg 68%
    07:00 +28°C° 0 mm 1 mps 745 mmHg 59%
    08:00 +30°C° 0 mm 1 mps 745 mmHg 49%
    09:00 +33°C° 0 mm 1 mps 744 mmHg 42%
    10:00 +36°C° 0 mm 1 mps 744 mmHg 35%
    11:00 +40°C° 0 mm 1 mps 743 mmHg 28%
    12:00 +42°C° 0 mm 1 mps 742 mmHg 26%
    13:00 +43°C° 0 mm 1 mps 742 mmHg 23%
    14:00 +44°C° 0 mm 1 mps 741 mmHg 20%
    15:00 +43°C° 0 mm 1 mps 740 mmHg 20%
    16:00 +42°C° 0 mm 1 mps 740 mmHg 20%
    17:00 +41°C° 0 mm 2 mps 740 mmHg 19%
    18:00 +39°C° 0 mm 2 mps 740 mmHg 26%
    19:00 +37°C° 0 mm 3 mps 741 mmHg 33%
    20:00 +35°C° 0 mm 4 mps 741 mmHg 40%
    21:00 +33°C° 0 mm 4 mps 742 mmHg 46%
    22:00 +32°C° 0 mm 4 mps 742 mmHg 53%
    23:00 +29°C° 0 mm 4 mps 743 mmHg 59%

    18 November, Monday

    Time Temperature Precipitation Wind Pressure Humidity
    00:00 +29°C° 0 mm 4 mps 743 mmHg 62%
    01:00 +28°C° 0 mm 5 mps 743 mmHg 64%
    02:00 +27°C° 0 mm 5 mps 743 mmHg 67%
    03:00 +27°C° 0 mm 4 mps 743 mmHg 71%
    04:00 +27°C° 0 mm 3 mps 744 mmHg 75%
    05:00 +26°C° 0 mm 2 mps 744 mmHg 80%
    06:00 +28°C° 0 mm 2 mps 745 mmHg 71%
    07:00 +30°C° 0 mm 3 mps 745 mmHg 63%
    08:00 +33°C° 0 mm 3 mps 745 mmHg 55%
    09:00 +36°C° 0 mm 3 mps 745 mmHg 45%
    10:00 +39°C° 0 mm 3 mps 745 mmHg 36%
    11:00 +42°C° 0 mm 3 mps 745 mmHg 27%
    12:00 +43°C° 0 mm 4 mps 744 mmHg 24%
    13:00 +44°C° 0 mm 4 mps 743 mmHg 22%
    14:00 +46°C° 0 mm 5 mps 742 mmHg 20%
    15:00 +45°C° 0 mm 5 mps 742 mmHg 21%
    16:00 +43°C° 0 mm 5 mps 742 mmHg 23%
    17:00 +42°C° 0 mm 5 mps 742 mmHg 25%
    18:00 +39°C° 0 mm 6 mps 743 mmHg 33%
    19:00 +35°C° 0 mm 6 mps 744 mmHg 42%
    20:00 +32°C° 0 mm 6 mps 745 mmHg 50%
    21:00 +30°C° 0 mm 5 mps 745 mmHg 58%
    22:00 +28°C° 0 mm 5 mps 746 mmHg 67%
    23:00 +27°C° 0 mm 4 mps 747 mmHg 75%

    19 November, Tuesday

    Time Temperature Precipitation Wind Pressure Humidity
    00:00 +27°C° 0 mm 3 mps 746 mmHg 77%
    01:00 +26°C° 0 mm 3 mps 746 mmHg 79%
    02:00 +26°C° 0 mm 3 mps 746 mmHg 82%
    03:00 +25°C° 0 mm 2 mps 746 mmHg 83%
    04:00 +25°C° 0 mm 2 mps 746 mmHg 85%
    05:00 +25°C° 0 mm 2 mps 747 mmHg 86%
    06:00 +26°C° 0 mm 2 mps 747 mmHg 80%
    07:00 +27°C° 0 mm 2 mps 747 mmHg 73%
    08:00 +29°C° 0 mm 3 mps 747 mmHg 66%
    09:00 +31°C° 0 mm 3 mps 747 mmHg 60%
    10:00 +34°C° 0 mm 3 mps 746 mmHg 54%
    11:00 +36°C° 0 mm 3 mps 746 mmHg 47%
    12:00 +37°C° 0 mm 4 mps 745 mmHg 45%
    13:00 +38°C° 0 mm 4 mps 744 mmHg 43%
    14:00 +39°C° 0 mm 5 mps 742 mmHg 41%
    15:00 +39°C° 0 mm 5 mps 742 mmHg 41%
    16:00 +39°C° 0 mm 5 mps 741 mmHg 41%
    17:00 +39°C° 0 mm 5 mps 741 mmHg 42%
    18:00 +36°C° 0.5 mm 5 mps 741 mmHg 49%
    19:00 +34°C° 0.5 mm 4 mps 742 mmHg 57%
    20:00 +32°C° 0.5 mm 4 mps 742 mmHg 65%
    21:00 +30°C° 0.7 mm 3 mps 743 mmHg 69%
    22:00 +29°C° 0.7 mm 3 mps 743 mmHg 73%
    23:00 +28°C° 0.7 mm 3 mps 744 mmHg 77%
    Show more